FENGYUN 1C DEB, 30495

Orbit data source: Space-Track

FENGYUN 1C DEB, 30495 is space debris in SSO originally from a launch on Mon, 10 May 1999 UTC launched from the Taiyaun Space Center, China (TSC). Fengyun 1C debris stems from the Chinese weather satellite Fengyun-1C, which was intentionally destroyed by a Chinese anti-satellite missile in 2007. This event dramatically increased the amount of space debris, with thousands of trackable fragments posing hazards to satellites and human spaceflight. The Fengyun 1C debris cloud has become a focal point in discussions about space sustainability and the need for international regulations to prevent the creation of new debris.

Loading next visibility...
Identifier
30495, 1999-025AHH
Orbit
SSO
Country
Flag of CNCN / PRC
Related business
Manufacturer
Unknown
Mission
Spacecraft
Bus & Motor
Unknown
Mass
Unknown
Launch date (UTC)
1999-05-10 (27 years ago)
Launch vehicle
Unknown
Launch site
Taiyaun Space Center, China (TSC)
Object type
Payload
Rocket body
Debris
Shape & HBR
Unknown shape, 0.1 m
Radar Cross Section
Small (<0.1 m²)

Expand to show TLE details & history
Last TLE update: 4 days ago

TLE from 4 days ago
0 FENGYUN 1C DEB
1 30495U 99025AHH 25337.52966465  .00002155  00000-0  35429-2 0  9997
2 30495 102.2617  65.1943 0596311 285.4927  68.1109 12.94327370885545
Epoch: 2025-12-03T12:42Z
TLE epoch observation values (Epoch: 2025-12-03T12:42:43.025Z)
Latitude
-0.00008°
Longitude
161.9159°
Altitude
1,140.867 km
Speed
7.352 km/s
True Right ascension
04h 20m 46s
True Declination
0° 00' 00"
Sunlit
Object was in full shadow at epoch
Visualization orbit readout
Latitude
Unknown
Longitude
Unknown
Altitude
Unknown
Speed
Unknown
Apparent Right ascension
Unknown
Apparent Declination
Unknown
Sunlit
N/A
Visualization observer readout
Local Sidereal Time
10:00:37
Azimuth
Unknown
Elevation
Unknown
Doppler factor
Unknown
Orbital elements
Apogee altitude
1,738.681 km
Perigee altitude
825.127 km
Semi-major axis
7,660.041 km
Eccentricity
0.05963
Inclination
102.2617°
RAAN
65.1943°
Arg. of periapsis
285.4927°
True anomaly
74.61845°
Mean anomaly
68.1109°
Eccentric anomaly
71.34807°
Mean motion
3.2374 °/min
Orbital period
111.2 mins
BSTAR
0.0035429
Loading maneuver chart data...
Computing Atmospheric mass density...

Documentation

Showing up to 5 results
|